Regional Weather Roundup
Issued by NWS

Home | Current Version | Previous Version | Text Only | Print | Product List | Glossary Off
Versions: 1 2 3 4 5 6 7 8 9 10 11 12 13 14 15 16 17 18 19 20 21 22 23 24 25 26 27 28 29 30 31 32 33 34 35 36 37 38 39 40 41 42 43 44 45 46 47 48 49 50

000
ASUS43 KOAX 281502
RWRNE

WEATHER ROUNDUP FOR NEBRASKA
NATIONAL WEATHER SERVICE OMAHA NE
1000 AM CDT FRI APR 28 2017

NOTES: SATELLITE DATA IS BEING USED TO AUGMENT CLOUD COVER ABOVE
       12000 FEET.
       "FAIR" INDICATES FEW OR NO CLOUDS BELOW 12,000 FEET WITH NO
       SIGNIFICANT WEATHER AND/OR OBSTRUCTIONS TO VISIBILITY.

  * THESE STATIONS DO NOT REPORT WEATHER SUCH AS RAIN...SNOW OR FOG.

NEZ001>004-019>022-054>056-281600-
NEBRASKA PANHANDLE

CITY           SKY/WX    TMP DP  RH WIND       PRES   REMARKS
SCOTTSBLUFF    LGT SNOW  34  32  92 E8        29.73R VSB 3/4 WCI  27
ALLIANCE       SNOW      33  31  92 E17       29.75R VSB 1/4 WCI  22
CHADRON        LGT SNOW  34  31  88 E21G29    29.82R FOG     WCI  22
KIMBALL        SNOW      33  33  97 E6        29.69R VSB<1/4 WCI  28
SIDNEY         SNOW      33  32  96 E8        29.71R VSB 1/2 WCI  26
$$

NEZ057>060-069>072-079>082-281600-
SOUTHWEST NEBRASKA

CITY           SKY/WX    TMP DP  RH WIND       PRES   REMARKS
NORTH PLATTE   MIX PCPN  36  34  92 NE14      29.74R FOG     WCI  27
IMPERIAL       LGT RAIN  37  35  92 NE13      29.72R WCI  29
LEXINGTON      LGT RAIN  39  37  91 NE20G25   29.71R WCI  30
MCCOOK         LGT RAIN  44  43  96 N18       29.67R FOG
OGALLALA       LGT SNOW  35  34  96 NE13      29.74R WCI  26
$$

NEZ005>010-023>029-035>040-094-281600-
NORTH CENTRAL NEBRASKA

CITY           SKY/WX    TMP DP  RH WIND       PRES   REMARKS
VALENTINE      CLOUDY    41  27  57 E16       29.86R
AINSWORTH      CLOUDY    38  32  81 E16       29.85R WCI  29
BROKEN BOW     LGT SNOW  34  33  96 NE15      29.76R FOG     WCI  24
O`NEILL        CLOUDY    39  30  70 E12G18    29.87R WCI  31
ORD            LGT SNOW  33  31  92 NE15      29.79R FOG     WCI  23
THEDFORD       SNOW      34  33  98 E16       29.81R VSB 1/2 WCI  23
$$

NEZ041-046>049-061>064-073>077-083>087-281600-
SOUTH CENTRAL NEBRASKA

CITY           SKY/WX    TMP DP  RH WIND       PRES   REMARKS
GRAND ISLAND   RAIN      37  37 100 NE22G31   29.74R FOG     WCI  26
AURORA         DRIZZLE   37  36  96 NE23      29.73R WCI  26
HASTINGS       LGT RAIN  40  38  93 NE22G30   29.70R FOG     WCI  30
HEBRON         CLOUDY    43  43  98 E16       29.68R FOG
HOLDREGE       DRIZZLE   41  40  94 NE21      29.68R
KEARNEY *      CLOUDY    39  36  87 NE24G33   29.71R WCI  28
YORK           LGT RAIN  37  37 100 NE24      29.74R WCI  26
$$

NEZ011>018-030>034-042>045-281600-
NORTHEAST NEBRASKA

CITY           SKY/WX    TMP DP  RH WIND       PRES   REMARKS
NORFOLK        MIX PCPN  33  31  92 NE15      29.83S WCI  23
ALBION         LGT SNOW  35  32  90 NE14G22   29.82R WCI  26
BLAIR          LGT RAIN  37  34  90 NE23G30   29.78S WCI  26
FREMONT        RAIN      37  35  94 NE10G16   29.81S WCI  30
TEKAMAH        LGT RAIN  37  33  85 NE16      29.85S WCI  28
WAYNE          LGT SNOW  36  33  88 E14       29.88S WCI  27
$$

NEZ050>053-065>068-078-088>093-281600-
SOUTHEAST NEBRASKA

CITY           SKY/WX    TMP DP  RH WIND       PRES   REMARKS
LINCOLN        LGT RAIN  40  38  93 NE16      29.77R FOG     WCI  31
OMAHA EPPLEY   LGT RAIN  39  33  79 NE17G23   29.80F WCI  30
BEATRICE       CLOUDY    42  41  95 NE20G25   29.70S FOG
FALLS CITY     CLOUDY    44  42  93 NE10      29.69S
NEBRASKA CITY  LGT RAIN  39  39  98 NE18      29.73S WCI  30
$$

NEZ044-045-051>053-067-281600-
OMAHA AREA

CITY           SKY/WX    TMP DP  RH WIND       PRES   REMARKS
OMAHA EPPLEY   LGT RAIN  39  33  79 NE17G23   29.80F WCI  30
BLAIR          LGT RAIN  37  34  90 NE23G30   29.78S WCI  26
FREMONT        RAIN      37  35  94 NE10G16   29.81S WCI  30
MILLARD        RAIN      40  37  90 NE6G16    29.79S
OFFUTT AFB     LGT RAIN  39  36  89 NE18      29.77F WCI  29
WAHOO          RAIN      38  35  91 NE20G25   29.79R WCI  28
$$




USA.gov is the U.S. government's official web portal to all federal, state and local government web resources and services.